Airfield :
LOGIN :

Register | Disclaimer

   EN    FR    IT 

 










Legend :    VFR   Marginal VFR   IFR   Intensive IFR   Very Intensive IFR
Visi :
Ceiling :
>= 8 km
>= 3000ft
5 to 8 km
1000 to 3000 ft
1500m to 5 km
500 to 1000 ft
800 to 1500m
200 to 500 ft
< 800m
< 200 ft
Symbols :   Thunderstorms  Fog  Heavy snow  Heavy precipitations  Wind > 20 kt
SIGMETs :     Misc.  Thunderstorms  Icing  Turbulence  Mountain Waves  Volcanic Ashes







- Airport Elevation : 598 ft
- IATA code : BQH
- Download approach charts


EGKB - Biggin Hill

CURRENT METAR :
  • 161650Z 17009KT 9999 SCT010 14/13 Q1016

EXPIRED METARs :
  • 161620Z 18009KT 9999 SCT015 15/13 Q1016
  • 161550Z 18010KT 9999 SCT020 15/13 Q1016
  • 161520Z 19011KT 9999 SCT013 15/13 Q1016
  • 161450Z 19013KT 9999 SCT015 16/13 Q1016
  • 161420Z 19013KT 9999 SCT017 17/13 Q1016

TAF TAF EGKB
Valid from the 16 at 15:00 until the 16 at 22:00 UTC


161357Z 1615/1622 20012KT 9999 SCT025
PROB40
TEMPO 1615/1620 BKN014
No reported NOTAMs for that airfield.



MET'MAP, your aeronautical weather chart ! - Copyright ORBIFLY December 2007 - Disclaimer

ORBIFLY MET'MAP TEAM :

Programming & Development : Alexandra Zaïnal
Concept & Development : Baudouin d'Aumeries
Co-Development & Prog : Marc-Olivier Méhu
Technical & hardware support : Manuel Goepfert

Contact : metmap@orbifly.com




SOURCES & CREDITS :

   NOAA